Location: Poprad
(49.0500°N, 20.3000°E)
Time: 06:54:44
(UTC+02:00)

BUGSAT 1 - Visible Passes

Search period start: 16 April 2024 00:00
Search period end: 26 April 2024 00:00
Orbit: 533 x 582 km, 98.1° (Epoch: 15 April)

Date Brightness Start Highest point End Pass type
(mag) Time Alt. Az. Time Alt. Az. Time Alt. Az.
16 Apr ? 20:51:28 10° SSW 20:54:48 26° W 20:58:11 10° NW visible
17 Apr ? 20:49:25 10° SSW 20:52:48 28° W 20:56:16 10° NW visible
18 Apr ? 20:47:21 10° SSW 20:50:48 29° W 20:54:20 10° NW visible
19 Apr ? 20:45:17 10° SSW 20:48:48 31° W 20:52:23 10° NNW visible
20 Apr ? 20:43:12 10° SSW 20:46:46 33° W 20:50:25 10° NNW visible
21 Apr ? 20:41:07 10° SSW 20:44:44 34° W 20:48:26 10° NNW visible
22 Apr ? 20:39:00 10° SSW 20:42:40 36° W 20:46:26 10° NNW visible
23 Apr ? 20:36:53 10° SSW 20:40:36 38° W 20:44:25 10° NNW visible
24 Apr ? 20:34:46 10° S 20:38:31 41° W 20:42:22 10° NNW visible
25 Apr ? 20:32:37 10° S 20:36:25 43° W 20:40:19 10° NNW visible
